Location: Palo Alto
(37.4420°N, 122.1420°W)
Time: 09:14:44
(UTC-07:00)

ISS - All Passes

Search period start: 22 September 2014 00:00
Search period end: 02 October 2014 00:00
Orbit: 413 x 416 km, 51.6° (Epoch: 22 September)

Date Brightness Start Highest point End Pass type
(mag) Time Alt. Az. Time Alt. Az. Time Alt. Az.
22 Sep - 01:42:11 10° SW 01:45:26 56° SE 01:48:42 10° ENE night (unlit)
22 Sep - 03:19:54 10° WNW 03:22:22 19° NNW 03:24:50 10° NNE visible
22 Sep - 08:12:46 10° NNW 08:15:49 32° NNE 08:18:51 10° E daylight
22 Sep - 09:49:41 10° WNW 09:52:24 23° SW 09:55:06 10° S daylight
23 Sep - 00:53:44 10° SSW 00:56:39 29° SE 00:59:34 10° ENE night (unlit)
23 Sep - 02:30:24 10° W 02:33:19 28° NNW 02:36:15 10° NNE night (unlit)
23 Sep - 07:24:08 10° NNW 07:26:47 21° NNE 07:29:25 10° E daylight
23 Sep - 09:00:26 10° WNW 09:03:37 44° SW 09:06:48 10° SSE daylight
24 Sep - 00:05:49 10° SSE 00:07:54 16° SE 00:09:59 10° E night (unlit)
24 Sep - 01:41:06 10° WSW 01:44:19 46° NW 01:47:33 10° NE night (unlit)
24 Sep - 03:20:40 10° NW 03:21:42 11° NNW 03:22:44 10° N night (unlit)
24 Sep - 06:35:37 10° NNW 06:37:40 15° NNE 06:39:42 10° ENE daylight
24 Sep - 08:11:26 10° NW 08:14:46 88° SW 08:18:05 10° SE daylight
25 Sep - 00:52:03 10° SW 00:55:22 86° NW 00:58:42 10° NE night (unlit)
25 Sep - 02:30:32 10° WNW 02:32:30 15° NNW 02:34:28 10° NNE night (unlit)
25 Sep - 05:47:17 10° N 05:48:28 11° NNE 05:49:38 10° NE visible
25 Sep - 07:22:34 10° NW 07:25:49 49° NE 07:29:03 10° ESE daylight
25 Sep - 09:00:18 10° W 09:02:12 15° SW 09:04:07 10° SSW daylight
26 Sep - 00:03:15 10° SSW 00:06:28 48° SE 00:09:41 10° ENE night (unlit)
26 Sep - 01:40:46 10° WNW 01:43:20 20° NNW 01:45:55 10° NNE night (unlit)
26 Sep - 06:33:48 10° NNW 06:36:47 29° NNE 06:39:44 10° E visible
26 Sep - 08:10:34 10° WNW 08:13:25 27° SW 08:16:15 10° SSE daylight
26 Sep - 23:14:49 10° S 23:17:36 25° SE 23:20:24 10° ENE night (unlit)
27 Sep - 00:51:13 10° W 00:54:13 31° NNW 00:57:14 10° NNE night (unlit)
27 Sep - 05:45:07 10° NNW 05:47:39 20° NNE 05:50:10 10° ENE visible
27 Sep - 07:21:18 10° WNW 07:24:33 51° SW 07:27:46 10° SSE daylight
27 Sep - 22:27:01 10° SSE 22:28:47 14° SE 22:30:34 10° E night (unlit)
28 Sep - 00:01:54 10° WSW 00:05:09 52° NW 00:08:25 10° NE night (unlit)
28 Sep - 01:41:11 10° NW 01:42:28 12° NNW 01:43:46 10° N night (unlit)
28 Sep - 04:56:33 10° NNW 04:58:26 14° NNE 05:00:19 10° ENE visible
28 Sep - 06:32:15 10° NW 06:35:35 81° NE 06:38:54 10° SE visible
28 Sep - 23:12:49 10° SW 23:16:08 82° SE 23:19:28 10° NE night (unlit)
29 Sep - 00:51:05 10° WNW 00:53:12 16° NNW 00:55:20 10° NNE night (unlit)
29 Sep - 04:08:15 10° N 04:09:09 11° NNE 04:10:02 10° NNE visible
29 Sep - 05:43:20 10° NW 05:46:33 43° NE 05:49:44 10° ESE visible
29 Sep - 07:20:47 10° W 07:22:59 17° SW 07:25:11 10° S daylight
29 Sep - 22:24:01 10° SSW 22:27:10 41° SE 22:30:20 10° ENE night (unlit)
30 Sep - 00:01:17 10° W 00:03:58 22° NNW 00:06:40 10° NNE night (unlit)
30 Sep - 04:54:31 10° NNW 04:57:25 27° NNE 05:00:17 10° E visible
30 Sep - 06:31:08 10° WNW 06:34:06 30° SW 06:37:04 10° SSE visible
30 Sep - 21:35:36 10° S 21:38:14 22° SE 21:40:53 10° ENE night (unlit)
30 Sep - 23:11:43 10° WSW 23:14:47 34° NNW 23:17:53 10° NE night (unlit)
01 Oct - 04:05:47 10° NNW 04:08:11 18° NNE 04:10:35 10° ENE visible
01 Oct - 05:41:51 10° WNW 05:45:08 60° SW 05:48:24 10° SE visible
01 Oct - 20:48:03 10° SSE 20:49:21 12° SE 20:50:40 10° ESE night (unlit)
01 Oct - 22:22:22 10° WSW 22:25:39 61° NW 22:28:58 10° NE night (unlit)
